Regional Weather Roundup
Issued by NWS

Home | Current Version | Previous Version | Graphics & Text | Print | Product List | Glossary On
Versions: 1 2 3 4 5 6 7 8 9 10 11 12 13 14 15 16 17 18 19 20 21 22 23 24 25 26 27 28 29 30 31 32 33 34 35 36 37 38 39 40 41 42 43 44 45 46 47 48 49 50
000
ASUS45 KBOU 211707
RWRCO

WEATHER ROUNDUP FOR COLORADO
NATIONAL WEATHER SERVICE DENVER/BOULDER CO
1100 AM MDT MON JUL 21 2014

NOTE: "FAIR" INDICATES FEW OR NO CLOUDS BELOW 12000 FEET WITH NO
SIGNIFICANT WEATHER AND/OR OBSTRUCTIONS TO VISIBILITY.

COZ001>005-013-030-031-211800-
...NORTHWEST COLORADO...

CITY           SKY/WX    TMP DP  RH WIND       PRES   REMARKS
CRAIG          SUNNY     82  46  28 VRB5      30.26S
HAYDEN         SUNNY     79  43  27 N3        30.28F
MEEKER         SUNNY     81  42  25 CALM      30.26F
MOUNT WERNER   NOT AVBL
STEAMBOAT SPGS SUNNY     77  44  30 CALM      30.31S
WALDEN         MOSUNNY   73  36  25 SW16      30.39R
$$

COZ006>008-011-211800-
...WEST CENTRAL VALLEYS...

CITY           SKY/WX    TMP DP  RH WIND       PRES   REMARKS
GRAND JUNCTION MOSUNNY   82  45  27 SE6       30.19S
MONTROSE       PTSUNNY   80  48  32 NW7       30.27S
EAGLE          MOSUNNY   70  46  43 CALM      30.35F
RIFLE          MOSUNNY   80  48  32 N5        30.24S
DELTA          PTSUNNY   84  44  24 CALM      30.23S
NUCLA          NOT AVBL
$$

COZ017>023-064>068-211800-
...SOUTHWEST COLORADO...

CITY           SKY/WX    TMP DP  RH WIND       PRES   REMARKS
DURANGO        PTSUNNY   78  42  27 CALM      30.35S
CORTEZ         SUNNY     84  32  15 W10       30.30S
PAGOSA SPRINGS PTSUNNY   74  42  30 CALM      30.43R
TELLURIDE      MOSUNNY   73  34  23 SW3       30.51S
WOLF CREEK PAS NOT AVBL
$$

COZ009-010-012-014-032>034-037-058>063-211800-
...CENTRAL COLORADO...

CITY           SKY/WX    TMP DP  RH WIND       PRES   REMARKS
ASPEN          PTSUNNY   71  49  45 N5        30.40S
BUENA VISTA    PTSUNNY   71  42  35 E5        30.43S
COPPER MTN     PTSUNNY   59  30  33 SW14G24   30.74S
BERTHOUD PASS  FAIR      52  37  58 W21       30.76S
COTTONWOOD PAS PTSUNNY   68  39  34 CALM      30.58R
GUNNISON       MOSUNNY   64  45  48 N3        30.47S
KREMMLING      PTSUNNY   66  45  45 CALM      30.39S
LEADVILLE      PTSUNNY   63  44  50 VRB3      30.56S
MONARCH PASS   MOSUNNY   57  32  38 W20G32    30.84S
SALIDA         PTSUNNY   69  48  46 CALM      30.46F
SUNLIGHT       PTSUNNY   64  43  45 CALM      30.66R
WILKERSON PASS NOT AVBL
$$

COZ069>075-211800-
...SAN LUIS VALLEY/SANGRE DE CRISTO MOUNTAINS...

CITY           SKY/WX    TMP DP  RH WIND       PRES   REMARKS
ALAMOSA        PTSUNNY   69  53  56 CALM      30.41S
LA VETA PASS   PTSUNNY   64  45  48 SW9G16    30.60R
SAGUACHE       MOSUNNY   70  46  43 S7        30.44S
$$

COZ035-036-038>040-211800-
...NORTHERN COLORADO FRONT RANGE...

CITY           SKY/WX    TMP DP  RH WIND       PRES   REMARKS
DENVER INTL AP PTSUNNY   91  41  17 SW8       30.16S
DMNS CITY PARK   N/A     86  48  26 SW3       30.17R
AURORA         PTSUNNY   85  47  26 SW8       30.20R
FRONT RANGE AP PTSUNNY   90  45  20 SW7       30.18
ERIE MUNI ARPT PTSUNNY   89  40  18 CALM      30.13S
BOULDER MUN AP PTSUNNY   88  45  22 CALM      30.14S
CENTENNIAL     PTSUNNY   85  44  23 W12       30.21S
BROOMFIELD     PTSUNNY   91  39  16 S7        30.19S
FORT COLLINS   PTSUNNY   88  52  29 CALM      30.11S
LONGMONT       PTSUNNY   91  46  20 CALM      30.14S
$$

COZ041-046-047-076>085-087-088-211800-
...PIKES PEAK/PALMER DIVIDE AND SOUTHERN FOOTHILLS...

CITY           SKY/WX    TMP DP  RH WIND       PRES   REMARKS
COLO. SPRINGS  CLOUDY    83  46  27 NW3       30.25R
A. F. ACADEMY  CLOUDY    82  42  24 VRB7      30.27R
ELLICOTT       CLOUDY    84  46  26 N5        30.23R
FALCON         CLOUDY    82  39  21 W6        30.32R
FORT CARSON    CLOUDY    80  52  37 S6        30.23R
LIMON          MOSUNNY   91  41  17 E5        30.16F
MONUMENT HILL  PTSUNNY   81  41  24 W9        30.31R
TRINIDAD       PTSUNNY   88  43  20 NW6G16    30.22R
$$

COZ042>045-048>051-090-091-211800-
...NORTHEAST COLORADO...

CITY           SKY/WX    TMP DP  RH WIND       PRES   REMARKS
GREELEY ARPT   PTSUNNY   82  57  42 CALM      30.12R
AKRON          PTSUNNY   88  48  25 VRB3      30.11R
BURLINGTON     PTSUNNY   93  55  27 CALM      30.07S
WRAY             N/A     94  47  19 W3        30.03S
STERLING       PTSUNNY   88  64  45 SW6       30.04F
HOLYOKE        PTSUNNY   99  46  16 NE6       30.02S
FORT MORGAN    PTSUNNY   85  49  28 W3        30.10F
$$

COZ086-089-092>099-211800-
...SOUTHEAST COLORADO...

CITY           SKY/WX    TMP DP  RH WIND       PRES   REMARKS
PUEBLO         CLOUDY    80  55  42 S5        30.13R
LA JUNTA       MOSUNNY   87  58  37 W12       30.08S
LAMAR          SUNNY     90  54  29 W9        30.02S
SPRINGFIELD      N/A     91  50  24 CALM      30.09S
$$



USA.gov is the U.S. government's official web portal to all federal, state and local government web resources and services.